Simultaneous Nadir Overpasses (SNOs) Predictions

Prediction of SNOs between AQUA and METOP-C Satellite Orbit:

Table of predicted SNOs for the next 14.0 days since TLE Epoch: 6/24/2023
Index Date (AQUA) Time (AQUA) Lat,Lon (AQUA) SZA (AQUA ) Date (METOP-C) Time (METOP-C) Lat,Lon (METOP-C) SZA (METOP-C ) Distance(km) Time Diff (sec)
1 06/25/2023 09:54:31 -74.52,-152.66 128.90 06/25/2023 09:54:08 -74.55,-152.68 128.86 3.65 23
2 06/25/2023 10:43:58 74.59, 14.81 51.18 06/25/2023 10:44:46 74.60, 14.77 51.18 1.32 48
3 06/28/2023 02:57:42 74.41, 131.82 51.09 06/28/2023 02:56:30 74.34, 131.19 51.05 20.46 72
4 06/28/2023 03:47:08 -74.55, -60.85 128.77 06/28/2023 03:47:08 -74.58, -60.87 128.74 3.65 0
5 06/28/2023 04:36:35 74.62, 106.60 51.32 06/28/2023 04:37:46 74.62, 106.56 51.30 1.42 71
6 06/30/2023 20:50:20 74.55,-136.63 51.39 06/30/2023 20:49:26 74.55,-136.52 51.39 3.27 54
7 06/30/2023 21:39:44 -74.58, 30.95 128.59 06/30/2023 21:40:08 -74.60, 30.92 128.57 2.24 24
8 07/03/2023 14:42:53 74.54, -44.72 51.58 07/03/2023 14:42:25 74.55, -44.77 51.60 1.95 28
9 07/03/2023 15:32:18 -74.61, 122.75 128.34 07/03/2023 15:33:07 -74.60, 122.68 128.36 2.63 49
10 07/06/2023 07:46:01 -74.55,-120.48 128.17 07/06/2023 07:44:47 -74.52,-120.45 128.19 2.84 74
11 07/06/2023 08:35:27 74.59, 47.06 51.88 07/06/2023 08:35:24 74.60, 47.09 51.89 1.14 3



Historial Predications of SNOs between AQUA and METOP-C
